Regional Weather Roundup
Issued by NWS

Home | Current Version | Previous Version | Text Only | Print | Product List | Glossary On
Versions: 1 2 3 4 5 6 7 8 9 10 11 12 13 14 15 16 17 18 19 20 21 22 23 24 25 26 27 28 29 30 31 32 33 34 35 36 37 38 39 40 41 42 43 44 45 46 47 48 49 50
000
ASUS42 KFFC 300610
RWRGA
WEATHER ROUNDUP FOR GEORGIA
NATIONAL WEATHER SERVICE PEACHTREE CITY GA
200 AM EDT SUN AUG 30 2015

NOTE: "FAIR" INDICATES FEW OR NO CLOUDS BELOW 12,000 FEET WITH NO
SIGNIFICANT WEATHER AND/OR OBSTRUCTIONS TO VISIBILITY.

* = USE WITH CAUTION. THE STATIONS MARKED WITH AN ASTERISK MAY NOT
REPORT WEATHER SUCH AS PRECIPITATION, FOG, OR THUNDER AND ARE NOT
QUALITY CONTROLLED BY NWS.

THE REMARK "TC" DENOTES TEMPERATURE READING IN DEGREES CELSIUS.

GAZ001>058-300700-
NORTH GEORGIA

CITY           SKY/WX    TMP DP  RH WIND       PRES   REMARKS
ATLANTA        CLOUDY    73  63  70 E6        30.12F
6HR MIN TEMP:  72; 6HR MAX TEMP:  78; 6HR PCP: TRACE;

ATHENS         MOCLDY    70  65  84 CALM      30.13F
6HR MIN TEMP:  70; 6HR MAX TEMP:  76;

CHAMBLEE       FAIR      73  65  75 VRB3      30.13F
6HR MIN TEMP:  73; 6HR MAX TEMP:  77;

PEACHTREE CITY MOCLDY    70  68  93 E3        30.13S FOG
6HR MIN TEMP:  69; 6HR MAX TEMP:  75; 6HR PCP: TRACE;

ROME           MOCLDY    71  68  90 CALM      30.11F
6HR MIN TEMP:  71; 6HR MAX TEMP:  78;

WEST ATLANTA   MOCLDY    71  67  87 CALM      30.12F
6HR MIN TEMP:  71; 6HR MAX TEMP:  79;

GAINESVILLE    CLOUDY    71  63  75 E3        30.17S
6HR MIN TEMP:  71; 6HR MAX TEMP:  74;

CARTERSVILLE   CLOUDY    69  67  93 SE3       30.13S
6HR MIN TEMP:  69; 6HR MAX TEMP:  76;



CITY           SKY/WX    TMP DP  RH WIND       PRES   REMARKS
DALTON*        FAIR      70  68  94 CALM      30.12F
MARIETTA       FAIR      73  65  75 E5        30.13F
BLAIRSVILLE*     N/A     66  56  70 CALM      30.18F
$$

GAZ059>098-102>109-300700-
CENTRAL GEORGIA

CITY           SKY/WX    TMP DP  RH WIND       PRES   REMARKS
AUGUSTA-BUSH   FAIR      70  66  87 CALM      30.11F
6HR MIN TEMP:  69; 6HR MAX TEMP:  75;

AUGUSTA-DANIEL FAIR      81  60  48 E3        30.13F
6HR MIN TEMP:  79; 6HR MAX TEMP:  88;

COLUMBUS       CLOUDY    72  70  93 E5        30.07F
6HR MIN TEMP:  70; 6HR MAX TEMP:  72; 6HR PCP:  0.27;

MACON          MOCLDY    71  68  90 CALM      30.10F
6HR MIN TEMP:  71; 6HR MAX TEMP:  77;

ROBINS AFB     FAIR      71  69  92 E2        30.09F


CITY           SKY/WX    TMP DP  RH WIND       PRES   REMARKS
LAGRANGE*      CLOUDY    74  74 100 CALM      30.10S
SYLVANIA*      FAIR      72  70  95 E3        30.11F
MILLEDGEVILLE* FAIR      73  63  68 CALM      30.11S
$$

GAZ099>101-110>166-300700-
SOUTH GEORGIA

CITY           SKY/WX    TMP DP  RH WIND       PRES   REMARKS
SAVANNAH       FAIR      76  72  87 CALM      30.09F
6HR MIN TEMP:  76; 6HR MAX TEMP:  79;

VALDOSTA       FAIR      74  72  93 CALM      30.06F
6HR MIN TEMP:  73; 6HR MAX TEMP:  74;

ALMA           FAIR      74  73  97 E3        30.07F
6HR MIN TEMP:  74; 6HR MAX TEMP:  76;

ST SIMONS      LGT RAIN  79  73  82 S12G22    30.08S
6HR MIN TEMP:  80; 6HR MAX TEMP:  82; 6HR PCP: TRACE;

FT STEWART     CLOUDY    74  72  93 CALM      30.07F
ALBANY         CLOUDY    75  71  87 SE3       30.08F
HUNTER AFB     FAIR      76  76 100 NE1       30.06F
MOODY AFB      CLOUDY    72  70  94 CALM      30.05F
BRUNSWICK      MOCLDY    77  75  94 CALM      30.08S


CITY           SKY/WX    TMP DP  RH WIND       PRES   REMARKS
BAINBRIDGE*    FAIR      72  70  94 E5        30.06F
MOULTRIE*      FAIR      72  70  94 CALM      30.08F
VIDALIA*       FAIR      72  70  94 CALM      30.09F
WAYCROSS*      FAIR      77  77 100 CALM      30.06F
DOUGLAS*       CLOUDY    75  73  94 E3        30.08F
$$


USA.gov is the U.S. government's official web portal to all federal, state and local government web resources and services.